User: anonymous   Login
Location: Antioch Baptist Church
(32.6696°N, 85.7327°W)
Time: 12:41:34
(UTC+00:00)
Language:

Tsikada Rocket - Orbit

View from above orbital plane
View from above orbital plane
View from above satellite
View from above satellite

Ground track
Ground track

The orbit data is extracted from the following two-line orbital elements,

1 23466U 95002D   20274.98633751 -.00000055  00000-0 -74380-4 0  9992
2 23466  82.9210  94.0745 0035892  91.6141  62.1833 13.74434410288375
Epoch (UTC): 30 September 2020 23:40:19
Eccentricity: 0.0035892
inclination: 82.9210°
perigee height: 957 km
apogee height: 1010 km
right ascension of ascending node: 94.0745°
argument of perigee: 91.6141°
revolutions per day: 13.74434410
mean anomaly at epoch: 62.1833°
orbit number at epoch: 28837

The dashed part of the orbit path shows where the satellite is in the earth's shadow,  

DLR